Location: Omaha
(41.2590°N, 95.9380°W)
Time: 15:36:06
(UTC-05:00)

Vanguard 1 Rocket - All Passes

Search period start: 18 July 2018 00:00
Search period end: 28 July 2018 00:00
Orbit: 652 x 4225 km, 34.3° (Epoch: 17 July)

Date Brightness Start Highest point End Pass type
(mag) Time Alt. Az. Time Alt. Az. Time Alt. Az.
18 Jul - 05:41:55 10° SSE 05:50:33 13° SE 05:58:14 10° ESE visible
18 Jul - 07:59:54 10° SSW 08:19:51 36° SSE 08:32:36 10° E daylight
18 Jul - 10:29:32 10° WSW 10:48:32 56° S 10:58:24 10° E daylight
18 Jul - 13:02:04 10° W 13:15:23 56° S 13:22:15 10° ESE daylight
18 Jul - 15:33:28 10° W 15:39:49 23° SW 15:44:10 10° SSE daylight
19 Jul - 06:47:58 10° SSW 07:06:28 27° SE 07:19:58 10° E daylight
19 Jul - 09:14:44 10° SW 09:35:47 50° SSE 09:47:32 10° E daylight
19 Jul - 11:47:01 10° WSW 12:03:43 62° S 12:12:06 10° ESE daylight
19 Jul - 14:19:19 10° W 14:29:21 39° SSW 14:35:05 10° SE daylight
20 Jul - 05:38:27 10° S 05:53:02 19° SE 06:05:13 10° ESE visible
20 Jul - 08:00:46 10° SW 08:22:32 43° SSE 08:36:08 10° E daylight
20 Jul - 10:31:38 10° WSW 10:51:27 61° S 11:01:37 10° E daylight
20 Jul - 13:04:42 10° W 13:18:20 54° SSW 13:25:23 10° ESE daylight
20 Jul - 15:36:53 10° W 15:42:26 19° SW 15:46:28 10° S daylight
21 Jul - 04:38:27 10° SE 04:39:44 10° SE 04:41:00 10° SE visible
21 Jul - 06:48:05 10° SSW 07:08:58 34° SSE 07:23:53 10° E daylight
21 Jul - 09:16:27 10° SW 09:38:34 57° SSE 09:50:48 10° E daylight
21 Jul - 11:49:28 10° W 12:06:40 63° S 12:15:17 10° ESE daylight
21 Jul - 14:22:12 10° W 14:32:05 34° SSW 14:37:54 10° SSE daylight
22 Jul - 05:37:15 10° S 05:55:23 25° SE 06:10:10 10° E visible
22 Jul - 08:02:01 10° SW 08:25:09 50° SSE 08:39:29 10° E daylight
22 Jul - 10:33:51 10° WSW 10:54:20 65° S 11:04:50 10° E daylight
22 Jul - 13:07:21 10° W 13:21:11 50° SSW 13:28:25 10° SE daylight
22 Jul - 15:40:46 10° WSW 15:44:55 14° SW 15:48:13 10° SSW daylight
23 Jul - 04:29:46 10° SSE 04:42:00 16° SE 04:53:15 10° ESE visible
23 Jul - 06:48:47 10° SSW 07:11:25 41° SSE 07:27:26 10° E daylight
23 Jul - 09:18:22 10° WSW 09:41:20 62° SSE 09:54:00 10° E daylight
23 Jul - 11:51:58 10° W 12:09:34 61° SSW 12:18:24 10° ESE daylight
23 Jul - 14:25:11 10° W 14:34:42 29° SW 14:40:31 10° SSE daylight
24 Jul - 05:37:08 10° SSW 05:57:38 31° SE 06:14:17 10° E visible
24 Jul - 08:03:35 10° SW 08:27:46 56° SSE 08:42:43 10° E daylight
24 Jul - 10:36:11 10° WSW 10:57:11 67° S 11:07:59 10° ESE daylight
24 Jul - 13:10:02 10° W 13:23:55 45° SSW 13:31:20 10° SE daylight
24 Jul - 15:46:40 10° WSW 15:47:17 10° SW 15:47:53 10° SW daylight
25 Jul - 04:27:45 10° S 04:44:06 21° SE 04:59:03 10° E visible
25 Jul - 06:49:55 10° SW 07:13:48 47° SSE 07:30:48 10° E daylight
25 Jul - 09:20:29 10° WSW 09:44:05 66° S 09:57:10 10° E daylight
25 Jul - 11:54:29 10° W 12:12:23 59° SSW 12:21:28 10° ESE daylight
25 Jul - 14:28:20 10° W 14:37:10 24° SW 14:42:52 10° S daylight
26 Jul - 03:24:13 10° SE 03:31:01 12° SE 03:37:46 10° ESE visible
26 Jul - 05:37:40 10° SSW 05:59:48 38° SE 06:17:55 10° E visible
26 Jul - 08:05:25 10° WSW 08:30:21 61° SSE 08:45:52 10° E daylight
26 Jul - 10:38:35 10° W 11:00:01 67° S 11:11:06 10° ESE daylight
26 Jul - 13:12:44 10° W 13:26:31 39° SW 13:34:06 10° SSE daylight
27 Jul - 04:27:15 10° S 04:46:06 27° SE 05:03:32 10° E visible
27 Jul - 06:51:24 10° SW 07:16:11 54° SSE 07:33:58 10° E daylight
27 Jul - 09:22:44 10° WSW 09:46:50 69° S 10:00:17 10° E daylight
27 Jul - 11:57:01 10° W 12:15:05 55° SSW 12:24:27 10° SE daylight
27 Jul - 14:31:48 10° W 14:39:29 19° SW 14:44:50 10° S daylight
